Theta_e
348 350 355 357 357 359 359 359 358 359 358 357 357 356 356 356 355 355 355 355 355 355 354 355 354 354 354 354 354 353 353 354 354 354 354 354 355 354 354 355 355 354 354 355 353 353 353 352 351 350 348 347 348 351 350 350 349 349 348 347 346 345 345 344 345 345 344 341 341 341 340 340 341 342 343 341 339 340 339 336 334 333 334 336 339
346 351 354 356 357 358 359 359 359 359 358 357 357 356 356 356 355 355 356 355 355 354 355 354 354 354 353 353 353 353 353 353 354 354 354 354 354 354 353 354 353 353 354 355 354 354 352 351 350 348 346 346 346 349 349 349 348 347 347 345 345 345 345 344 343 342 343 342 340 341 344 343 342 343 344 341 339 339 338 337 336 333 333 337 339
349 350 354 356 357 358 358 359 359 359 358 357 357 356 356 356 355 356 356 356 355 355 354 354 354 353 353 353 353 353 353 353 353 353 353 354 353 353 352 352 351 351 351 352 351 352 351 350 348 347 347 346 346 348 348 348 348 347 345 344 344 344 344 344 344 344 342 340 342 345 344 343 342 341 343 341 338 337 338 337 335 336 332 337 340
347 351 354 356 357 357 358 358 358 358 357 356 357 356 356 356 356 356 356 355 355 354 354 354 353 353 353 352 352 352 353 352 352 352 352 352 352 352 351 352 352 351 351 350 350 350 350 349 348 347 347 346 346 346 347 347 347 346 345 345 345 345 343 341 342 342 342 342 345 343 340 334 336 341 341 341 341 337 337 337 336 337 337 337 339
348 351 354 355 356 357 357 358 357 357 356 357 357 357 357 356 356 356 356 355 354 354 354 353 353 353 352 352 351 352 352 352 353 351 351 351 351 351 351 351 351 350 349 349 349 348 348 348 348 347 346 346 346 346 347 346 346 345 344 344 343 344 344 343 342 342 344 343 347 345 336 335 335 342 342 343 339 337 337 337 337 337 338 337 338
348 350 352 352 353 354 356 357 357 357 357 357 357 357 357 356 356 356 355 354 354 354 354 353 353 353 352 351 351 351 351 351 351 351 351 352 352 351 351 351 351 350 349 348 348 349 348 348 347 347 347 346 345 346 346 346 345 344 343 342 343 342 343 343 342 344 342 344 345 344 337 335 335 336 341 342 340 337 337 336 337 336 336 336 339
348 348 350 352 352 353 356 356 356 357 356 356 356 356 356 356 356 355 355 354 354 354 353 353 352 352 352 351 350 350 350 350 350 351 353 353 353 352 350 350 349 348 348 347 347 348 347 347 347 346 347 346 346 345 344 345 344 343 342 342 342 343 343 342 344 341 344 345 342 342 337 335 335 335 342 342 340 338 337 336 336 336 336 336 337
346 347 349 351 352 355 356 356 356 356 355 355 355 355 355 355 355 355 354 354 354 353 353 352 352 352 352 351 351 350 350 351 351 352 352 351 351 352 351 348 347 348 347 347 347 347 347 347 348 347 347 346 345 344 344 343 343 342 342 342 342 343 342 343 343 343 344 342 342 340 336 335 334 335 343 343 340 338 338 338 337 337 337 336 335
345 346 349 351 353 355 355 354 354 355 355 355 355 355 355 355 355 355 355 354 353 353 352 352 352 352 351 351 351 350 350 351 352 352 352 352 352 352 351 350 348 348 348 349 347 349 347 347 347 348 348 346 344 344 344 344 343 342 342 340 342 342 341 343 343 345 344 343 340 338 337 334 332 335 342 343 340 339 338 336 336 337 337 336 335
345 348 349 353 353 355 354 354 353 354 355 355 356 356 355 355 354 354 354 354 354 353 352 352 352 351 351 351 350 350 350 351 352 352 351 351 351 351 350 349 348 347 348 347 347 347 347 347 347 348 347 346 344 344 345 344 343 343 342 343 341 343 344 342 345 346 341 338 338 338 338 340 334 335 339 343 341 338 336 336 335 334 334 335 335
348 349 350 352 353 354 353 353 354 355 356 356 356 356 355 355 355 354 354 354 353 352 352 352 352 352 351 351 350 350 350 351 351 351 351 351 351 350 349 349 348 348 348 348 347 347 347 347 347 347 346 345 345 345 346 345 345 344 344 344 343 344 346 345 347 342 343 334 340 339 341 343 334 336 341 341 341 339 338 337 336 336 335 335 335
348 350 351 353 356 353 353 353 354 354 355 356 355 355 355 354 354 354 354 353 352 352 352 352 352 352 351 351 350 350 350 351 351 352 352 351 350 349 349 349 349 348 348 348 347 347 347 347 347 347 346 346 346 346 345 345 344 344 343 345 344 346 346 346 345 342 336 340 338 336 335 335 335 337 341 341 340 337 336 336 336 335 336 335 334
349 349 352 352 351 353 352 353 354 354 354 355 355 355 354 354 354 354 353 353 352 351 352 351 351 352 351 350 349 349 350 350 350 350 350 349 349 349 349 348 349 348 348 347 347 348 349 348 347 346 346 346 346 345 345 345 343 344 343 344 344 344 343 346 342 340 339 338 336 336 335 335 336 340 339 340 341 339 336 335 335 335 335 335 335
350 350 350 349 349 355 352 353 353 354 354 354 353 353 354 354 353 353 352 352 352 352 352 352 352 351 351 349 350 350 349 349 350 349 350 349 349 348 348 348 348 348 348 348 348 348 348 347 346 345 345 345 345 344 344 343 342 342 344 343 345 344 345 345 346 342 331 336 337 336 336 336 335 341 340 341 341 341 338 336 336 336 335 335 335
350 350 349 349 350 351 354 352 353 353 353 353 352 353 353 352 352 352 352 352 352 352 352 352 351 350 349 350 349 348 349 349 349 348 349 349 348 348 348 347 347 347 347 347 347 347 346 346 345 345 344 345 345 344 342 343 344 341 342 345 346 345 346 342 341 336 335 339 337 335 336 338 344 342 342 342 340 338 337 334 334 334 334 334 334
351 348 348 349 348 350 350 354 352 352 352 352 352 352 352 352 352 352 352 352 352 352 352 351 350 349 349 349 348 348 348 349 348 348 349 348 348 347 347 346 346 346 346 346 346 346 345 344 345 344 343 343 343 342 342 343 343 343 342 343 346 345 346 345 342 341 337 337 337 337 336 339 344 342 342 340 339 337 337 337 336 335 335 335 334
350 349 347 347 348 347 348 350 351 352 352 351 352 351 351 351 351 351 351 350 351 352 351 349 348 348 347 348 348 347 348 348 348 348 348 348 348 347 347 347 346 346 345 345 345 345 345 344 343 343 342 342 342 342 342 342 342 341 341 341 342 345 345 346 343 340 336 337 335 334 335 337 342 340 340 339 339 338 338 337 334 332 332 333 334
349 348 345 347 347 346 348 347 350 349 350 351 351 350 350 350 349 350 351 351 351 351 348 345 341 342 343 344 347 348 348 348 347 347 347 348 348 347 347 346 346 346 345 344 343 343 343 342 342 342 341 341 341 340 341 341 341 342 340 342 344 344 347 348 343 341 337 342 337 339 338 341 340 339 339 338 338 339 339 338 337 334 334 334 334
347 346 345 344 345 346 346 348 348 347 348 349 350 349 348 347 347 349 347 347 350 348 345 343 344 343 342 343 344 346 345 345 347 347 347 347 347 346 347 346 345 345 343 342 341 341 341 341 342 342 341 341 340 339 339 340 339 338 341 341 344 346 348 347 342 337 340 340 338 338 339 342 340 339 339 338 339 339 338 338 336 334 332 333 333
346 346 344 344 344 345 346 346 345 346 349 349 348 348 348 346 346 346 345 346 345 344 341 342 345 343 342 341 344 342 342 343 346 346 347 347 347 345 346 345 345 343 342 341 341 341 342 342 341 339 340 339 339 339 339 339 339 338 340 343 345 345 344 343 342 334 339 338 337 337 343 342 340 339 338 338 337 337 337 336 337 337 335 334 334
344 346 346 345 345 345 345 344 345 346 346 346 347 345 344 342 340 341 345 347 346 344 342 341 342 343 343 342 340 340 341 341 342 345 346 345 346 346 345 345 344 342 342 342 341 341 342 341 340 339 339 340 338 340 341 338 338 340 340 341 343 342 342 343 344 336 339 338 338 339 343 341 339 339 339 339 338 338 337 337 338 338 336 334 333
342 341 344 345 345 345 346 343 343 344 346 345 344 344 342 341 340 341 345 347 345 342 341 340 343 342 342 341 339 338 341 340 342 344 345 346 345 346 345 344 343 342 342 342 341 341 341 340 340 341 339 340 342 338 338 340 342 340 341 341 340 339 341 343 341 335 337 337 339 341 343 341 340 339 340 339 337 337 337 338 337 337 335 335 334
341 342 342 345 345 345 344 344 344 344 343 344 344 344 342 345 344 345 344 345 343 341 343 344 342 341 342 340 340 340 340 340 344 345 345 345 345 346 345 344 343 343 342 341 342 342 341 342 342 341 341 342 339 336 335 333 335 340 341 340 335 338 340 342 340 340 337 337 338 344 343 342 341 340 339 338 338 338 338 338 337 337 335 333 332
340 341 342 344 344 343 338 340 345 346 344 344 343 344 342 342 343 345 344 341 341 340 341 342 342 341 341 340 340 338 339 339 343 344 344 344 345 345 345 344 343 343 343 342 342 342 341 342 343 342 342 339 334 335 335 334 333 334 335 336 337 338 340 341 337 337 337 339 339 344 343 342 341 341 339 337 337 338 338 338 337 337 335 333 333
341 342 341 342 343 343 338 340 344 344 345 344 343 343 343 343 344 344 342 342 341 341 343 344 342 342 342 341 340 337 339 339 343 345 343 344 343 343 343 343 343 342 343 341 341 339 341 340 339 341 337 334 332 333 335 339 336 334 335 336 337 344 343 341 339 338 337 337 340 343 344 344 342 341 339 338 336 340 338 337 337 336 335 335 334
341 339 340 342 341 338 340 340 344 344 342 344 343 342 344 343 342 343 342 342 340 341 342 342 343 343 342 341 339 340 340 340 342 343 344 343 341 341 341 341 341 340 342 342 341 341 340 339 338 336 335 335 336 337 337 336 336 335 335 336 341 341 341 336 337 342 336 338 341 344 344 344 343 341 341 339 337 337 338 336 336 336 335 335 334
339 338 340 341 341 339 340 340 342 342 340 341 344 343 342 343 344 343 341 341 342 340 339 342 341 341 341 340 341 337 337 335 342 343 344 345 344 345 346 346 344 344 342 343 343 341 340 339 337 334 335 334 336 336 335 336 335 334 334 334 336 338 338 334 341 342 338 337 342 344 343 344 343 343 341 339 338 338 336 336 336 335 334 336 336
339 340 340 341 341 339 341 343 341 339 338 341 343 343 340 340 343 342 342 343 342 341 342 341 340 339 341 341 341 341 337 339 338 342 342 344 342 345 344 344 343 344 345 343 340 340 336 336 335 334 337 336 334 333 333 333 331 332 335 335 334 336 336 336 340 345 339 336 340 343 343 344 343 343 341 340 338 337 336 336 336 334 336 337 336
338 338 338 339 339 337 339 340 339 339 338 338 341 344 343 341 342 342 342 343 341 341 340 338 339 339 338 338 340 341 339 336 340 340 341 340 341 341 342 342 343 342 340 338 341 337 335 336 337 337 335 335 335 334 337 334 333 333 330 333 332 332 333 334 339 341 342 335 336 341 344 344 344 343 342 339 338 338 338 336 335 334 335 337 336
339 336 337 339 339 343 340 338 338 338 340 341 342 343 342 340 342 343 343 343 341 341 339 339 338 338 337 338 340 338 339 335 337 340 338 338 340 340 339 339 340 341 341 339 338 337 337 336 338 338 336 336 335 337 337 333 333 334 329 330 333 331 332 334 337 341 344 342 337 341 343 343 344 344 344 340 338 337 338 336 335 334 333 337 338
338 335 335 335 338 338 339 341 341 341 340 340 342 341 342 342 343 342 342 342 341 339 339 338 339 337 338 338 337 341 342 340 339 338 339 337 336 335 337 339 340 340 341 341 340 338 338 338 336 337 336 334 336 338 337 333 334 335 330 332 333 331 330 333 335 337 339 343 338 338 341 343 343 342 342 342 343 338 337 337 336 334 333 332 339
336 336 335 336 337 338 337 341 341 342 341 339 342 340 340 341 342 342 343 342 339 338 339 339 337 337 335 335 340 342 343 342 338 340 336 335 335 336 340 339 340 342 341 340 341 339 339 337 339 338 337 336 335 337 337 337 333 334 332 332 333 330 332 333 335 335 337 342 340 336 338 340 342 341 341 341 341 342 337 337 337 336 334 332 338
337 338 336 336 337 336 337 339 339 342 342 341 340 341 341 341 342 342 339 341 341 338 337 336 337 336 337 338 338 341 339 337 336 337 336 335 335 335 336 338 339 341 341 341 339 338 339 339 339 338 337 337 337 336 335 338 336 337 337 335 333 332 332 330 332 336 339 340 340 341 336 337 338 339 340 340 341 341 339 337 336 337 336 334 334
335 336 337 339 339 339 338 337 337 335 338 338 336 335 337 340 341 343 342 339 339 337 335 337 338 338 338 340 342 342 342 341 339 338 338 335 335 337 337 337 339 341 340 342 339 339 339 338 338 337 337 335 334 334 335 333 335 335 332 334 334 333 334 331 334 336 336 338 338 337 339 338 337 337 339 340 340 340 339 340 336 337 336 334 334
336 336 336 337 340 338 336 336 337 336 338 338 336 336 335 336 339 338 342 341 338 334 334 338 339 340 340 342 341 341 341 339 340 339 337 338 338 336 337 337 339 339 339 340 339 339 338 338 338 335 337 335 336 336 335 332 334 333 333 332 339 336 332 334 336 335 336 337 338 336 333 334 336 339 339 337 339 338 339 340 337 336 337 335 334
332 334 336 336 336 338 336 334 335 336 337 335 336 336 336 336 337 339 341 338 339 337 340 339 339 341 341 341 342 342 341 340 340 340 340 337 336 336 335 338 338 338 339 340 340 338 339 338 338 337 334 334 335 335 335 334 333 333 336 334 335 334 335 334 334 334 335 337 335 334 333 333 333 335 339 338 336 337 338 340 339 339 335 334 332
334 334 331 333 334 338 338 337 336 337 338 339 336 333 338 337 335 335 338 336 336 339 340 343 341 340 340 340 341 342 342 340 340 340 340 337 336 336 337 338 339 338 339 338 337 338 338 337 335 336 337 334 333 333 334 333 334 333 334 334 332 337 335 335 337 336 335 333 334 334 336 333 334 340 335 337 338 335 337 340 339 339 338 338 333
332 332 332 335 336 336 337 338 336 336 336 336 336 335 334 336 336 337 335 336 336 339 344 340 339 341 340 339 340 341 341 339 340 340 340 337 338 337 338 339 338 339 339 337 336 339 337 335 334 337 336 334 333 333 333 334 335 333 332 332 331 335 338 337 335 338 332 333 335 335 335 336 335 335 336 336 339 337 336 337 338 337 338 338 338
333 332 332 335 335 333 335 335 334 333 334 335 335 334 334 333 333 333 337 337 338 340 341 338 338 341 339 340 340 341 340 340 339 340 339 337 337 336 337 337 336 337 336 334 336 336 336 336 335 335 335 335 334 335 334 334 333 333 332 333 334 333 335 337 337 333 331 331 335 335 337 335 335 335 335 336 337 337 335 335 334 333 334 336 338
332 330 330 333 335 336 337 336 336 338 339 339 337 333 331 329 328 332 334 335 336 336 338 335 336 334 336 337 337 341 339 340 338 339 340 338 337 336 336 336 336 335 335 334 334 335 335 335 335 335 333 334 335 334 335 334 332 330 329 329 331 332 335 334 334 332 331 331 332 333 334 334 333 334 335 334 336 336 336 336 336 335 336 336 338
332 330 330 332 335 335 336 335 337 337 334 334 336 334 332 332 335 334 334 334 333 338 336 335 333 336 334 333 335 337 338 338 337 338 339 336 336 338 337 336 336 335 336 336 336 336 336 335 334 333 332 331 331 334 336 334 329 326 327 329 332 335 335 334 332 330 329 332 333 332 333 332 333 333 334 335 334 335 336 336 336 336 336 336 334
330 331 330 332 334 336 336 336 338 337 335 336 338 337 337 338 335 333 332 331 332 332 329 332 332 333 335 336 336 334 336 336 337 338 336 335 334 334 334 334 336 336 337 337 336 335 335 335 334 331 332 330 330 333 335 332 325 324 321 324 327 331 331 332 331 330 329 330 332 331 332 332 332 333 334 335 333 334 334 336 333 334 334 334 335
330 330 331 331 332 332 333 335 336 337 337 335 338 336 336 337 341 335 336 331 336 334 329 331 333 332 336 334 336 337 334 333 335 335 334 334 334 335 334 334 335 336 335 334 336 336 337 336 334 331 330 331 329 333 334 333 326 327 326 323 319 318 325 328 330 329 329 329 332 331 332 331 331 333 334 335 334 332 332 330 333 334 334 332 332
329 329 330 331 330 331 332 334 335 336 334 334 335 336 336 335 343 338 338 334 329 331 332 332 331 331 331 333 337 339 337 332 328 328 329 334 336 333 332 334 334 337 334 333 334 331 333 334 335 332 332 325 326 330 333 333 331 327 319 320 319 319 315 318 323 326 330 331 329 329 330 331 332 333 334 333 333 332 331 332 334 334 333 333 333
327 328 329 330 330 331 333 335 335 334 334 333 335 336 337 341 336 334 334 332 332 329 327 328 329 328 330 334 335 334 329 327 328 329 329 331 333 335 334 333 333 335 335 330 329 330 329 330 331 331 331 328 326 328 330 333 331 332 325 321 318 316 316 320 321 323 326 327 328 329 331 331 331 331 331 332 334 332 333 332 331 333 333 332 334
327 328 330 330 331 331 333 334 334 334 334 334 335 334 337 336 332 330 328 330 328 330 327 323 325 328 326 333 331 331 335 335 329 329 329 330 331 334 334 330 333 332 333 333 333 331 329 328 329 330 328 330 329 326 327 330 333 331 332 330 326 319 317 321 321 313 323 325 327 329 330 330 331 330 330 330 330 331 331 330 331 331 332 332 332
328 330 330 331 332 332 334 334 334 334 335 334 335 335 337 334 333 331 331 329 329 330 332 333 328 329 334 331 331 333 330 331 330 329 329 329 332 333 335 333 329 331 331 330 329 329 327 328 330 329 328 331 330 325 325 326 330 330 331 332 330 329 328 323 317 318 314 320 325 326 326 331 329 329 329 329 330 330 330 330 330 330 331 332 331
329 331 331 331 331 332 334 334 335 335 335 335 335 338 337 334 334 333 332 333 331 328 331 330 332 330 330 331 331 332 329 330 329 326 327 329 332 332 332 330 332 328 328 326 327 328 329 330 331 331 331 330 329 327 327 330 326 326 328 326 329 329 329 327 325 320 318 314 317 323 327 328 326 327 329 329 330 329 329 329 329 329 329 329 329
330 332 332 332 333 334 335 335 334 334 334 334 336 338 337 336 336 336 335 332 329 329 327 328 329 329 329 332 331 328 329 327 324 326 325 325 326 328 329 327 325 325 324 326 327 327 328 328 328 329 328 328 329 330 328 327 327 326 327 326 326 326 325 325 326 324 319 315 315 317 319 325 325 326 328 328 329 329 327 329 329 330 329 330 331
331 331 333 333 333 334 333 331 332 333 333 335 334 329 326 327 330 335 333 328 329 327 328 328 328 332 327 326 328 328 328 328 327 327 327 325 327 327 327 329 329 326 325 323 323 325 327 325 326 327 328 327 328 328 327 327 328 329 327 326 325 324 323 324 323 322 322 320 315 316 318 318 317 320 325 326 326 327 328 329 329 328 329 325 322
329 330 331 330 331 331 330 330 331 333 332 331 330 328 327 326 325 329 332 328 328 329 326 326 328 327 325 326 327 327 326 326 327 325 325 325 326 328 327 324 327 328 325 324 325 324 326 327 327 327 326 327 326 326 326 326 326 322 322 323 322 322 320 321 320 322 321 317 317 316 317 319 316 317 321 322 321 324 327 329 329 326 322 321 319
Wind_Speed
12 16 13 15 16 15 14 14 16 14 16 17 17 18 18 18 18 18 17 17 17 16 16 15 15 14 13 12 13 13 12 13 13 13 13 13 14 15 15 14 14 13 14 15 15 15 14 13 14 13 12 12 14 15 16 15 14 15 14 13 13 13 12 13 13 14 16 16 15 15 14 13 15 16 16 16 17 17 16 14 13 9 6 7 14
14 13 12 13 16 15 15 14 13 15 16 17 18 18 18 18 18 18 18 17 16 16 15 15 15 14 12 11 12 12 12 12 13 13 12 13 13 14 14 14 13 15 15 16 15 14 13 13 13 12 12 12 13 14 15 14 14 14 13 12 11 11 11 11 12 12 14 16 16 15 18 17 15 15 16 17 17 17 16 15 14 8 3 11 12
15 13 11 14 16 15 15 14 13 16 16 17 18 18 18 18 18 18 17 17 16 15 15 15 15 14 12 11 11 11 10 11 12 12 12 12 13 13 13 12 13 12 13 14 14 13 13 13 12 12 12 12 12 13 13 14 13 14 13 11 8 8 8 9 10 12 12 14 16 18 18 17 15 15 16 16 16 15 16 15 14 11 7 12 13
17 12 11 13 16 15 15 15 15 15 17 17 17 18 17 17 17 17 17 17 16 15 15 14 14 13 12 11 11 11 11 10 11 12 12 11 12 12 12 12 12 12 12 12 12 12 12 12 12 12 11 12 12 12 12 12 13 12 10 8 6 6 6 6 8 9 9 13 18 14 8 8 10 16 15 16 15 14 15 15 15 13 13 12 15
17 13 11 11 13 13 14 14 15 17 17 16 17 17 17 17 17 16 17 16 15 15 14 14 14 13 12 11 11 12 11 10 9 12 12 11 11 11 11 12 13 12 11 11 11 10 11 11 12 11 11 11 11 11 11 11 11 10 8 6 4 4 5 4 3 4 8 9 11 8 10 9 9 14 14 15 15 13 13 16 15 14 14 14 12
14 13 11 11 11 13 13 14 15 16 16 17 18 17 17 17 18 17 16 16 15 14 14 14 13 12 11 11 11 11 11 10 10 11 11 11 10 10 12 11 12 11 11 10 10 10 10 11 11 11 11 11 11 11 11 11 10 8 5 4 3 1 2 3 3 6 4 8 9 2 6 9 8 8 14 14 14 13 13 15 15 14 13 12 16
15 11 11 11 10 12 12 14 15 16 16 16 16 17 17 17 17 17 16 16 15 14 14 15 14 12 11 11 11 11 11 10 9 8 8 9 10 10 11 11 10 10 10 10 9 9 10 10 11 10 11 11 11 11 10 11 9 6 4 1 2 3 3 3 4 2 3 4 4 4 5 9 8 7 15 13 14 14 14 14 13 13 12 11 13
13 11 11 10 10 13 13 14 15 15 16 16 16 17 17 17 17 17 17 16 15 14 15 15 14 13 12 11 11 10 10 9 9 9 9 10 10 9 8 8 9 9 9 9 9 8 9 10 11 10 11 11 11 10 10 9 7 5 2 2 4 5 5 6 5 5 9 5 7 5 9 9 7 7 14 13 13 15 15 14 14 14 15 14 11
13 13 11 10 11 17 13 13 15 15 16 16 17 16 17 17 17 16 16 16 15 15 16 15 14 14 12 11 11 10 10 10 10 10 10 10 10 9 9 9 9 8 8 8 8 5 7 9 10 11 11 12 11 10 10 9 6 4 3 3 4 6 6 7 8 10 7 6 7 8 11 9 7 7 12 15 15 14 15 12 12 14 14 13 13
13 12 11 10 12 15 14 14 15 15 15 16 15 17 17 17 16 16 16 15 15 15 15 14 14 14 13 12 12 11 11 10 11 11 11 10 10 9 9 10 9 9 10 9 8 7 7 8 10 11 12 12 10 10 10 8 6 4 2 3 4 6 7 7 10 10 7 4 12 14 11 13 9 9 11 14 15 15 14 14 11 11 10 14 14
13 11 11 11 15 15 15 15 15 14 15 15 16 16 16 15 16 15 15 15 15 16 14 14 14 13 13 13 12 12 11 11 10 10 10 10 9 9 9 9 10 9 10 9 8 8 7 8 9 11 12 11 9 8 7 7 4 2 2 2 6 6 8 9 10 6 6 9 12 10 13 16 8 7 12 14 15 15 14 14 14 13 13 13 14
14 11 11 11 16 15 15 15 15 15 15 16 16 16 15 15 15 15 14 14 16 16 14 12 12 12 13 13 12 12 12 11 11 10 10 10 10 9 9 9 8 9 9 8 8 8 8 9 12 11 10 10 8 7 6 5 3 1 2 4 7 7 8 10 8 7 2 13 13 10 10 11 9 9 14 14 15 14 13 13 13 14 14 13 12
13 12 12 13 14 13 14 15 15 15 16 15 16 15 15 15 14 14 13 12 12 14 14 13 12 11 11 12 12 12 11 11 11 11 11 10 10 10 9 9 8 9 9 8 9 9 10 11 10 9 8 8 7 6 5 4 3 0 4 6 7 8 9 10 6 8 4 10 11 12 11 8 7 10 12 14 14 14 13 12 13 13 13 13 14
13 13 12 12 12 14 14 15 15 15 15 15 15 15 14 13 13 12 12 11 11 12 12 12 11 11 11 11 11 10 9 12 11 11 12 11 10 11 11 10 10 9 9 9 10 10 10 10 9 7 7 6 6 5 4 4 3 1 4 6 8 8 9 9 7 5 7 12 10 13 9 6 7 10 12 13 13 14 13 13 13 14 13 13 13
14 13 13 12 13 13 15 13 14 14 15 14 13 12 12 12 12 11 11 11 12 10 12 12 12 13 13 11 10 9 9 9 11 12 12 11 11 10 10 10 10 10 9 9 9 9 9 8 8 7 6 5 5 4 4 4 2 1 4 7 8 8 9 7 7 1 6 13 10 12 10 7 12 12 12 13 12 12 14 13 11 12 13 13 13
14 14 13 12 13 13 12 13 12 13 13 13 12 11 10 10 10 10 9 10 10 10 11 12 13 14 12 11 10 9 9 8 9 11 11 10 10 10 10 9 8 9 9 9 8 8 8 7 7 6 4 4 4 4 4 3 2 1 4 7 8 8 9 7 5 6 7 10 11 10 9 8 14 13 11 12 12 13 13 13 12 12 13 12 12
14 14 13 13 13 13 11 11 12 15 12 11 11 11 11 10 9 9 8 9 10 11 11 13 14 13 9 9 10 9 8 8 8 10 10 10 10 10 10 10 9 9 8 8 9 9 7 6 6 6 4 3 3 4 3 3 2 1 4 5 8 8 8 7 5 5 4 10 10 10 7 7 11 11 12 11 13 12 13 14 13 11 11 11 12
14 14 14 13 13 12 11 12 12 11 10 10 11 11 10 10 9 7 9 9 11 11 12 14 15 11 10 8 8 9 9 8 8 8 8 8 8 9 9 10 10 9 9 8 7 7 6 5 5 5 4 3 3 3 3 2 2 1 4 7 8 8 8 6 4 3 8 12 10 9 7 9 13 12 10 11 12 13 13 12 12 11 11 12 12
13 14 14 14 13 12 12 11 11 10 10 7 7 9 11 10 9 8 10 8 9 13 15 15 15 14 12 9 6 9 9 8 7 8 6 6 8 8 8 9 9 9 8 8 7 6 6 5 5 4 4 3 2 2 2 2 2 1 4 7 9 8 9 6 6 2 10 8 8 8 7 13 13 12 11 10 12 12 12 11 12 12 11 11 11
11 11 12 12 12 12 11 11 11 9 7 7 8 8 10 11 9 11 12 10 11 11 15 11 13 13 12 10 9 7 6 3 7 5 8 6 6 6 7 9 8 8 8 8 8 7 7 6 5 3 4 4 3 3 4 5 4 4 4 6 8 8 5 4 7 5 9 9 8 7 11 12 14 12 11 11 10 10 11 11 11 12 11 11 11
8 8 8 10 12 12 12 10 10 9 7 7 6 6 8 9 6 6 8 10 13 16 17 13 10 9 11 11 7 5 3 4 3 4 8 6 5 7 8 9 9 9 9 8 7 7 7 6 5 4 3 3 3 5 5 5 6 6 6 6 7 4 5 6 2 6 9 8 8 8 13 14 13 12 12 11 11 11 11 11 11 11 12 10 10
9 7 8 8 10 11 10 10 7 6 8 7 5 6 6 6 6 6 6 9 13 16 12 8 10 7 10 8 4 3 3 1 1 4 3 7 8 8 8 9 9 10 9 8 7 6 5 5 4 4 3 4 6 3 4 6 7 6 6 6 3 4 6 6 3 4 10 8 7 9 14 14 13 12 12 12 11 11 11 11 11 10 10 11 11
9 8 8 9 8 9 10 8 9 10 10 8 6 7 7 5 7 6 6 7 9 9 6 8 6 6 7 5 4 4 3 3 0 5 4 7 8 9 9 9 9 9 8 7 6 5 4 4 4 5 5 6 5 4 5 4 4 8 6 3 3 5 5 2 2 4 8 8 7 12 13 13 13 12 11 11 11 10 11 10 11 11 10 9 10
11 9 7 6 9 8 9 2 8 10 10 7 7 7 7 4 4 5 7 5 7 6 5 4 6 7 7 5 3 4 2 1 2 7 7 5 5 6 8 9 8 9 9 5 5 4 4 5 6 6 4 4 5 6 7 5 3 3 4 5 5 6 7 3 4 7 7 9 8 13 13 13 12 12 10 10 10 11 10 10 10 11 10 9 9
6 9 8 6 6 8 10 9 7 8 8 8 7 8 7 6 6 6 6 6 5 5 4 4 6 6 5 4 5 2 4 2 3 2 3 4 4 4 4 3 3 3 7 3 4 3 4 4 3 4 4 5 6 7 5 1 5 4 5 5 6 1 1 3 5 5 6 7 8 13 13 10 12 13 11 9 8 12 10 10 10 10 10 9 9
7 7 9 8 9 8 7 5 5 8 6 5 6 8 8 5 6 5 6 5 7 6 4 4 4 5 4 5 5 3 3 3 3 2 2 3 4 3 4 4 3 3 5 2 3 3 3 3 3 3 4 6 6 4 4 5 4 5 4 4 1 0 2 5 5 7 7 6 8 13 12 8 10 13 12 10 9 10 10 9 9 9 9 9 8
7 7 7 8 9 9 9 8 7 6 8 4 5 6 5 5 5 5 5 3 5 6 3 4 3 4 5 5 5 5 2 2 1 1 1 1 0 1 1 1 1 1 3 1 1 1 2 6 9 9 9 11 12 9 6 3 4 1 1 2 2 2 4 7 2 3 6 6 7 12 12 9 7 5 11 10 8 10 10 9 9 8 8 9 8
8 9 8 8 9 8 6 9 7 7 4 5 5 7 6 4 3 5 4 6 7 5 5 3 2 4 4 4 4 5 4 2 2 1 1 0 0 1 1 1 1 1 1 2 2 1 6 2 5 4 2 1 3 8 11 16 7 4 3 2 3 3 9 3 2 2 5 6 6 9 11 10 7 4 11 10 9 10 9 9 9 7 9 9 9
10 9 8 9 10 9 9 8 4 12 9 6 4 5 7 7 5 5 4 7 5 5 5 3 3 3 5 3 2 2 5 1 1 3 2 1 1 0 1 1 2 3 3 2 1 1 1 1 1 1 1 2 4 3 3 3 14 3 4 2 2 2 8 5 2 1 4 6 6 7 12 10 7 5 5 10 9 10 10 9 8 8 8 10 10
9 10 8 7 10 8 11 12 9 9 8 7 4 6 7 7 6 6 5 6 5 6 6 3 4 2 4 1 1 2 3 6 4 3 3 2 1 0 2 1 1 2 1 1 3 1 1 0 1 1 1 2 1 2 1 2 5 10 9 4 1 2 7 7 4 3 2 3 6 7 11 10 9 6 5 8 10 9 10 9 8 8 7 9 9
10 11 11 10 11 11 8 10 9 8 6 5 4 4 5 6 5 4 4 7 6 6 5 2 1 3 4 1 1 4 3 6 5 4 3 3 1 2 1 0 1 1 0 0 3 1 1 1 1 1 1 2 2 2 1 2 3 2 6 11 11 2 3 8 4 4 3 1 6 5 7 11 10 8 7 8 4 9 9 10 10 8 7 6 10
10 9 7 9 13 13 9 6 7 6 5 6 3 4 5 4 4 4 5 7 7 5 4 4 1 4 5 3 4 1 2 5 2 1 3 2 3 3 0 1 1 1 1 0 1 1 0 1 1 2 2 2 1 3 2 2 4 4 3 6 9 8 1 5 4 4 4 2 5 5 5 5 9 7 7 6 7 5 8 9 10 8 7 5 10
7 7 9 11 15 12 8 8 6 4 4 5 4 5 4 2 3 5 5 6 6 4 3 3 2 2 6 10 8 7 6 5 7 6 6 2 2 2 2 2 1 1 0 1 1 1 1 1 1 3 1 0 0 0 3 2 1 3 4 5 4 8 9 2 5 3 5 2 4 5 5 5 4 6 6 6 6 5 3 8 8 8 7 7 8
7 6 10 13 11 9 7 6 5 6 5 7 8 6 6 1 4 2 5 7 5 5 5 4 6 8 9 8 6 6 4 6 6 5 4 4 3 2 1 1 0 0 1 0 0 1 0 0 1 1 1 1 1 1 2 2 1 2 5 8 4 3 6 11 5 2 4 3 4 5 7 5 2 3 4 6 6 5 6 5 8 9 8 7 8
8 8 14 12 11 11 9 8 9 9 6 6 5 5 5 5 3 4 1 6 5 6 5 8 8 6 5 5 5 4 5 4 5 5 5 4 4 4 2 1 1 1 1 1 1 1 2 0 1 1 1 1 0 1 1 1 2 3 2 3 4 4 5 6 10 3 2 3 6 9 7 2 3 1 3 5 4 6 6 7 6 7 8 7 8
12 11 11 8 9 9 11 9 9 9 7 7 5 5 7 4 4 3 3 1 5 7 9 7 6 5 5 4 4 3 5 5 4 4 4 3 4 4 3 3 3 2 3 1 2 1 0 0 1 1 1 1 1 2 1 1 1 1 1 1 0 5 4 7 5 6 9 3 7 9 5 2 2 2 2 1 4 3 6 7 6 4 5 5 4
11 11 8 5 7 9 11 12 11 10 10 10 8 7 6 5 1 2 5 2 7 4 3 3 4 5 4 5 5 4 3 5 5 4 2 3 4 4 3 4 3 2 2 1 2 1 0 1 1 2 2 1 1 2 1 0 0 0 0 2 4 3 2 6 4 5 6 7 7 6 3 5 6 5 2 1 4 5 4 6 6 5 5 5 4
11 13 8 5 7 7 7 7 8 7 7 6 5 6 6 5 3 1 8 8 6 3 2 3 5 3 3 5 5 5 4 6 4 4 3 4 3 2 3 2 2 1 1 1 1 1 2 1 1 1 1 2 2 1 1 1 0 1 2 5 4 3 0 3 2 3 7 4 4 4 5 4 1 2 2 1 3 4 3 4 6 5 5 4 4
11 15 8 4 4 7 7 9 9 8 7 7 6 6 6 6 5 7 10 7 4 4 5 5 5 4 5 5 5 4 3 5 6 4 4 3 3 4 2 2 1 1 0 0 1 0 2 1 0 3 1 1 1 2 2 0 2 1 2 5 1 1 2 1 4 8 9 5 1 5 2 2 3 2 2 2 3 3 3 3 2 2 2 3 2
12 13 10 5 6 6 8 8 9 7 6 5 5 6 5 4 6 11 5 3 3 4 4 4 5 6 6 5 6 2 4 3 5 4 2 3 3 4 3 2 2 2 2 3 2 1 0 1 0 1 2 1 0 2 0 2 1 2 3 2 2 3 2 2 3 9 10 5 3 3 2 1 1 1 1 2 3 3 2 3 2 2 1 4 3
13 13 11 8 4 5 7 8 7 7 5 4 3 5 3 4 5 3 4 4 4 2 5 5 5 4 5 8 6 5 4 5 6 4 3 5 3 3 2 2 2 2 2 0 1 1 1 1 2 2 1 0 0 0 1 1 1 2 0 0 0 3 2 3 5 9 11 4 2 2 1 2 4 2 1 2 2 3 2 2 3 4 1 2 2
10 10 12 10 6 6 7 7 5 5 6 4 4 3 2 1 2 3 4 5 4 4 6 4 5 5 6 5 5 6 7 7 5 5 5 7 5 4 3 3 2 2 2 1 1 2 2 2 3 2 1 1 1 1 1 1 2 2 3 2 2 1 1 2 4 8 9 5 2 2 0 1 2 4 2 3 2 2 3 2 6 2 3 2 2
10 7 10 13 10 8 9 7 5 4 4 3 2 2 1 3 2 4 2 4 4 5 5 5 5 6 5 5 3 3 5 5 5 5 4 3 4 4 4 4 4 3 3 2 1 2 0 0 2 1 2 2 2 2 0 2 2 2 2 2 2 2 2 2 6 7 7 4 2 2 1 1 2 2 3 4 3 4 5 3 2 1 3 2 5
8 8 8 11 8 7 9 9 7 6 4 3 2 1 1 6 1 5 6 6 6 6 5 4 4 5 5 4 3 2 3 3 6 7 5 3 2 3 4 3 2 2 2 1 1 2 4 2 2 4 2 3 1 1 2 1 1 3 2 0 0 1 0 1 5 4 3 5 3 3 2 1 2 4 4 4 4 5 5 1 3 4 3 4 4
10 8 7 7 7 10 9 9 7 7 5 5 4 3 2 1 7 8 6 6 4 4 4 4 4 5 4 3 2 3 4 4 5 6 5 4 4 3 3 4 3 2 1 4 3 4 3 2 4 2 3 1 3 0 1 0 1 0 2 1 1 1 0 1 6 2 1 4 4 2 4 2 2 3 4 4 4 4 4 4 4 3 2 2 1
11 10 8 7 8 11 12 9 7 6 6 5 4 4 1 4 6 6 5 2 3 3 4 5 5 4 4 3 4 3 2 3 5 6 5 4 4 2 2 4 3 3 2 2 2 3 4 4 4 3 5 4 1 2 1 2 2 1 1 2 1 0 2 1 2 3 4 4 1 2 3 4 3 4 4 4 4 4 5 3 2 3 1 1 2
10 12 11 11 11 11 11 9 6 4 4 3 5 1 1 5 6 5 2 3 3 3 3 4 6 5 3 5 4 3 4 4 4 4 4 3 3 2 1 2 5 3 3 4 3 5 5 3 3 4 4 3 3 4 1 2 1 1 3 2 1 2 2 2 2 5 4 1 3 3 3 2 3 5 5 3 3 5 3 3 3 1 1 4 4
12 12 12 11 12 11 9 8 6 5 4 5 3 0 3 5 4 3 3 3 3 4 3 4 4 5 5 4 3 3 4 4 4 4 3 3 2 2 2 4 1 6 3 5 5 5 5 4 3 3 4 4 4 5 3 2 3 0 1 2 1 2 2 5 4 1 2 5 2 3 2 3 2 3 3 4 5 5 5 5 5 3 3 4 4
11 10 9 10 11 11 10 8 8 7 6 5 3 1 3 4 3 2 2 4 5 3 3 3 4 5 4 3 3 4 4 5 4 4 4 4 3 3 3 3 4 4 6 5 4 5 4 3 3 2 4 3 3 3 3 3 2 1 1 2 3 3 3 2 2 2 4 5 3 2 2 2 5 5 3 3 5 5 5 6 5 2 2 4 4
7 4 6 7 8 10 12 12 11 9 7 6 5 7 8 7 4 2 3 5 3 3 3 4 4 3 5 5 5 4 4 4 4 4 4 4 4 4 3 3 3 3 4 5 5 4 3 4 4 3 3 4 3 3 3 4 3 4 3 3 2 2 3 2 2 3 1 3 7 4 2 4 4 2 4 3 7 6 6 6 6 4 3 5 6
5 6 5 5 6 6 6 9 10 9 8 7 7 7 5 7 4 5 3 4 4 3 4 4 4 4 4 4 4 4 4 5 4 5 5 4 4 3 3 3 3 4 4 4 3 4 3 3 4 4 4 4 5 5 5 4 3 3 2 1 3 2 2 3 3 2 2 5 6 6 2 3 4 6 4 6 9 10 8 7 6 5 5 5 6
Wind_Direction
126 125 126 128 130 125 121 122 129 125 124 126 124 124 125 126 124 123 121 120 119 117 115 113 114 115 113 113 111 111 111 110 110 108 109 108 107 105 106 105 106 108 108 108 108 105 99 96 93 90 87 85 80 81 80 77 78 84 83 80 82 89 94 92 94 99 98 93 87 81 82 77 64 58 60 50 50 48 45 68 74 70 56 56 62
129 122 127 128 127 127 126 128 128 127 128 127 125 126 127 127 126 123 121 120 120 118 116 116 118 118 116 111 110 109 112 112 111 109 109 108 109 108 110 113 112 108 106 105 102 100 99 95 95 93 94 90 85 81 79 78 78 81 81 81 83 92 95 99 103 106 108 106 100 94 75 67 67 65 61 59 56 53 54 59 74 78 62 67 64
123 123 126 128 126 127 130 131 128 129 130 127 128 127 129 128 125 123 121 120 120 120 118 120 121 118 116 117 114 109 107 110 111 111 109 111 111 111 109 109 108 106 106 103 104 103 100 98 96 95 90 87 90 88 83 80 80 80 84 85 92 97 97 104 100 106 117 121 112 96 88 75 68 68 70 70 66 62 64 66 74 73 65 66 71
123 123 123 125 123 128 128 134 136 131 133 132 129 129 128 126 124 122 121 122 123 120 121 122 120 119 119 121 120 115 109 112 115 115 115 114 117 117 118 114 109 109 109 109 109 107 103 102 101 99 99 97 91 89 87 84 83 80 82 87 89 80 88 105 119 118 126 136 131 110 92 87 69 65 67 69 71 66 69 73 76 72 68 67 79
121 124 125 126 126 126 133 135 139 140 137 134 130 128 128 127 125 123 123 122 121 121 122 122 122 122 123 125 124 118 113 111 116 121 119 119 118 119 119 115 112 109 112 111 112 113 108 105 99 99 100 98 94 91 88 87 84 81 84 87 76 68 61 73 96 140 149 163 173 83 108 96 77 68 66 69 72 69 71 77 78 79 80 75 75
121 125 129 129 130 135 134 139 142 141 138 135 132 129 129 129 128 124 121 122 122 122 122 122 122 123 124 126 123 118 116 114 116 121 125 124 121 121 120 121 116 116 115 119 115 111 114 108 105 103 99 98 101 94 89 88 86 85 79 68 76 45 137 160 165 169 176 203 225 274 83 85 83 69 76 73 73 71 68 74 75 84 89 79 60
123 127 130 127 133 143 139 139 141 139 138 136 132 129 129 131 129 124 122 123 126 125 124 127 127 123 125 125 121 120 117 119 116 116 108 118 128 127 129 127 121 117 120 119 119 119 116 114 108 108 102 103 103 96 92 87 90 86 85 51 342 355 342 14 316 238 262 238 229 231 104 92 87 76 70 78 79 77 79 76 74 75 73 73 70
127 130 132 132 134 142 138 136 134 135 137 137 134 135 133 133 130 126 126 129 129 129 131 131 128 129 128 126 123 122 120 114 113 101 90 101 101 101 105 115 113 116 121 123 123 122 125 119 114 110 105 105 101 98 93 94 98 98 68 14 355 341 346 321 325 290 289 255 248 147 95 93 86 77 72 75 80 80 74 72 73 68 68 71 87
131 134 132 130 132 140 132 131 132 136 138 138 137 134 134 134 132 130 130 131 133 133 135 133 133 133 133 129 125 126 124 118 108 96 89 87 87 96 106 105 107 111 112 114 114 119 127 122 120 114 112 106 103 106 103 102 103 96 61 354 352 329 319 323 312 311 284 232 65 86 97 95 99 84 78 79 75 78 78 72 65 71 76 77 79
133 132 129 127 139 132 130 131 134 137 138 135 133 135 134 135 134 133 133 134 135 136 136 136 138 137 134 131 132 132 134 122 109 108 106 98 95 92 104 113 115 115 112 117 123 119 117 119 120 118 113 109 115 112 102 100 99 87 67 11 326 316 312 310 316 300 284 69 81 76 77 82 76 80 83 78 78 77 77 79 85 85 88 81 77
130 131 131 128 136 129 131 133 134 129 127 128 128 130 131 133 133 135 136 137 138 140 139 141 142 139 137 135 135 136 134 121 116 118 114 110 103 99 98 109 122 124 125 126 130 127 123 124 121 115 113 119 121 118 111 105 90 67 48 294 310 306 312 308 311 296 238 106 94 92 87 90 79 77 86 86 86 82 81 78 82 82 75 78 80
136 132 128 121 131 132 132 131 129 130 127 128 128 130 130 135 134 135 136 139 142 143 143 143 141 140 136 135 136 136 135 127 125 122 117 111 111 107 107 104 114 121 126 128 125 126 121 119 119 120 123 123 129 124 115 111 108 35 316 304 296 305 308 311 308 295 45 81 89 87 89 87 87 86 89 88 87 87 80 82 80 82 87 82 74
129 122 116 128 141 135 132 131 132 133 132 129 132 133 136 137 135 138 140 141 143 146 147 144 140 133 132 134 136 137 131 128 126 119 116 114 112 113 118 124 115 120 124 126 121 124 124 122 125 128 131 130 135 133 125 122 107 29 294 299 298 304 313 313 290 285 119 102 93 93 92 91 100 105 95 92 94 90 86 86 81 80 80 82 83
113 117 127 137 143 138 133 132 132 134 134 135 137 138 140 139 138 140 139 140 144 149 146 140 128 122 118 121 119 113 119 128 122 119 118 118 119 120 123 127 126 121 125 124 126 124 130 131 132 134 138 142 140 134 128 122 116 307 301 297 301 308 317 303 295 254 81 100 97 91 84 84 95 100 95 93 93 90 86 81 82 84 81 82 80
124 131 136 136 141 143 132 129 131 134 136 136 137 138 138 138 137 137 138 141 147 143 140 130 121 121 118 115 117 116 108 118 127 127 126 124 122 120 124 129 130 125 128 126 130 130 130 136 134 135 138 139 144 137 133 123 128 295 284 299 299 311 319 318 314 359 111 93 104 99 97 96 93 92 95 96 91 95 90 91 96 86 83 86 87
132 135 134 134 142 141 142 135 131 133 133 132 135 134 129 130 131 136 139 138 137 132 129 126 125 120 119 123 126 124 114 110 127 127 126 125 122 122 119 119 118 128 132 134 132 134 134 119 117 127 136 136 142 138 126 118 121 189 286 292 301 309 313 315 305 297 99 109 98 97 100 104 105 103 103 100 101 101 99 89 81 88 88 84 80
135 134 133 139 139 144 142 146 139 132 125 130 131 126 122 122 129 132 135 133 131 134 130 134 120 105 102 128 135 125 121 117 126 129 129 129 125 123 124 123 122 123 129 134 117 95 106 116 119 120 121 127 128 118 118 116 120 192 277 286 292 298 301 305 305 293 52 100 106 109 110 110 117 114 110 105 103 99 100 96 89 89 94 84 80
139 137 141 141 143 146 145 149 140 137 133 131 129 127 124 129 130 115 127 137 138 136 132 120 113 131 155 158 132 130 128 124 130 132 135 120 120 126 129 129 130 128 128 133 133 128 120 111 111 112 116 123 127 124 123 132 124 250 280 286 288 291 295 299 264 257 90 95 100 103 106 113 113 111 109 112 107 100 97 101 98 91 84 85 89
140 142 144 147 149 145 146 140 143 141 132 143 138 130 133 133 136 130 125 134 143 130 125 119 130 150 163 139 124 128 117 118 125 133 121 118 127 132 131 129 130 133 131 132 135 136 141 135 118 121 123 125 152 156 153 144 177 238 278 292 293 301 304 290 266 174 89 94 102 109 115 124 117 117 115 111 111 106 99 101 104 97 99 105 93
137 136 146 148 146 145 141 142 140 134 137 133 134 130 139 136 137 131 145 143 134 127 96 112 160 169 147 136 141 99 99 138 130 131 140 128 145 140 131 131 130 133 129 130 136 142 145 142 143 155 169 176 190 206 204 197 195 222 248 283 288 301 300 272 270 115 98 100 107 114 119 121 124 121 121 118 110 112 110 104 106 104 92 87 90
122 123 131 147 146 144 141 138 130 127 142 125 127 121 107 108 111 130 154 147 132 120 123 156 173 153 139 146 100 85 178 172 141 168 151 151 124 126 141 134 135 133 134 136 142 149 153 154 162 180 215 222 218 241 241 226 216 205 221 249 282 303 278 281 287 89 105 104 110 118 126 123 125 129 123 123 120 117 116 108 104 104 103 100 97
136 133 134 145 154 151 136 127 117 147 136 133 149 124 119 141 157 173 176 155 140 128 141 164 160 145 138 121 111 150 210 196 156 155 190 147 143 142 143 140 140 141 140 147 154 163 167 173 185 210 242 256 262 262 237 231 225 224 208 218 262 276 271 272 8 91 101 107 112 127 129 127 126 125 127 127 125 121 118 114 105 97 98 97 101
145 143 156 157 150 149 130 112 149 152 139 147 140 129 150 169 160 164 152 148 138 137 155 161 133 131 128 101 137 203 183 175 258 172 193 162 143 146 147 148 145 146 147 155 167 173 187 200 219 234 248 261 265 259 258 215 205 214 225 212 228 245 261 237 299 54 101 110 116 131 129 129 131 132 132 130 131 126 117 114 112 104 99 102 101
158 151 156 157 159 140 73 90 162 148 147 138 143 144 160 152 156 155 137 162 154 148 169 150 128 135 132 131 138 220 101 359 263 189 163 128 131 138 154 151 153 151 157 159 173 195 211 226 237 250 257 254 245 245 244 194 198 193 192 222 218 233 221 186 210 115 114 118 126 134 132 132 136 134 133 132 136 128 119 114 114 108 100 97 98
152 130 143 165 157 111 129 191 155 148 136 142 142 155 154 163 165 154 153 165 140 142 175 132 130 141 135 128 140 210 117 213 236 180 153 155 149 158 156 162 161 165 163 177 165 191 202 230 228 235 253 245 242 241 254 278 171 195 195 206 237 261 137 198 59 81 90 111 133 137 132 132 139 138 133 136 131 120 125 119 118 114 103 98 103
120 145 156 155 121 91 122 143 143 153 144 141 145 155 152 151 151 159 155 172 150 143 151 106 121 141 128 106 123 140 153 214 189 170 153 202 166 160 180 175 175 180 170 230 172 190 196 250 256 248 242 250 259 312 308 262 188 209 193 197 221 148 248 39 107 90 106 117 140 137 129 132 146 140 138 134 132 127 126 124 118 115 117 111 111
147 146 143 144 115 121 146 153 155 144 122 154 141 144 135 149 147 156 142 134 111 113 127 129 156 150 134 124 136 147 197 189 141 155 130 259 62 187 102 11 133 80 156 236 308 3 7 23 18 352 346 336 331 318 293 288 310 293 251 178 195 198 94 97 343 90 113 127 134 136 135 139 143 146 144 137 141 133 128 126 120 124 124 126 114
151 141 129 109 109 117 136 155 136 97 112 179 153 131 145 140 149 127 171 132 119 140 122 120 181 197 141 133 139 140 160 149 146 173 168 92 356 15 347 175 114 143 43 43 13 51 71 166 186 206 232 290 312 354 349 338 309 299 310 257 153 250 101 132 121 85 118 128 139 146 144 142 144 85 142 142 138 139 132 127 131 130 134 131 123
130 135 120 128 133 141 153 134 124 128 166 191 157 136 133 159 145 144 144 144 117 116 113 142 199 213 80 111 154 115 118 39 299 144 70 46 132 233 9 335 61 44 40 45 319 51 138 275 241 259 134 30 10 355 5 17 292 287 290 275 169 165 112 126 135 153 127 141 146 149 145 140 127 104 123 143 141 138 137 136 136 129 132 138 138
144 138 138 138 128 140 142 129 145 150 159 163 151 137 140 140 150 149 140 122 95 104 119 178 228 77 81 194 142 115 155 152 223 106 141 159 110 80 97 48 57 91 96 335 63 104 138 197 343 357 68 118 61 307 352 255 324 341 318 280 128 235 122 137 183 132 67 143 133 150 148 139 120 94 64 140 150 147 144 139 140 134 137 145 148
144 151 162 158 131 132 113 125 135 144 147 120 129 133 125 130 140 139 112 109 101 110 124 178 193 102 97 68 278 169 214 145 152 144 137 96 248 30 339 85 54 52 115 31 120 154 131 121 146 58 55 37 23 299 233 283 354 278 356 348 324 267 88 118 173 127 145 123 130 149 150 135 119 98 85 60 80 154 146 149 150 143 143 151 147
148 171 157 128 124 121 134 117 110 132 117 119 135 132 125 138 142 115 89 104 124 128 143 156 82 72 80 328 272 259 154 84 35 36 95 197 150 151 180 44 67 136 84 324 47 51 101 183 110 99 67 82 338 309 318 39 341 342 346 14 339 328 95 81 154 164 130 124 118 133 118 114 113 104 85 84 66 68 153 151 151 145 143 140 142
145 158 129 110 112 124 124 121 125 96 98 135 156 121 99 123 110 98 120 103 114 110 91 134 110 100 179 174 213 192 150 148 178 168 144 220 36 65 69 65 25 66 33 82 62 335 32 283 114 63 123 127 145 304 349 18 37 337 346 342 37 349 327 229 164 134 105 103 75 97 108 105 100 99 101 99 81 69 77 163 144 149 146 151 140
126 131 97 99 108 109 107 94 88 62 44 43 37 33 34 316 73 65 112 117 126 136 164 183 175 191 169 183 184 162 169 152 137 111 140 151 167 144 132 146 166 58 59 257 179 175 200 100 92 158 44 101 74 16 336 52 53 45 9 336 5 351 41 -0 332 115 116 127 86 72 64 64 128 147 119 103 102 90 70 99 147 156 152 160 149
90 70 91 99 95 107 113 114 113 132 141 104 106 106 87 356 23 27 28 110 130 159 169 190 182 165 157 147 171 153 141 123 110 140 154 157 131 126 142 140 125 136 212 166 236 174 223 214 80 283 130 149 131 87 51 5 30 40 77 293 320 10 72 76 312 309 128 113 107 72 46 51 5 39 151 150 126 124 121 116 112 149 162 160 159
70 86 88 96 95 95 121 125 131 127 115 109 104 97 80 44 2 350 332 81 175 197 195 187 152 136 128 133 129 125 125 126 124 117 118 130 120 131 160 172 164 151 227 200 237 205 157 136 17 303 307 7 190 111 87 39 31 8 12 206 35 17 40 81 305 342 352 10 88 97 156 204 226 244 122 92 134 125 111 101 99 110 145 148 147
82 83 74 78 107 113 122 132 132 129 128 123 123 118 103 98 53 318 323 291 264 201 168 109 100 110 139 130 121 114 119 112 117 117 109 105 136 160 161 164 173 166 153 184 217 195 175 120 129 343 349 315 345 99 86 25 322 254 91 51 12 51 342 104 246 104 57 55 71 99 168 178 202 181 71 53 102 120 118 119 111 99 97 119 147
95 107 116 148 128 123 115 108 101 99 93 94 100 104 96 111 84 57 228 214 188 222 65 102 122 141 131 111 119 129 136 116 123 135 126 128 117 137 157 154 133 175 163 147 279 201 107 118 143 128 35 12 10 10 84 44 294 346 21 52 33 310 184 96 289 88 99 73 103 145 171 171 131 75 112 63 94 102 107 103 104 101 105 126 147
90 104 106 175 149 123 115 107 97 97 107 120 125 118 119 97 91 250 210 191 145 119 135 135 113 112 100 105 105 102 115 123 139 146 130 124 146 139 145 139 127 123 118 222 233 318 127 144 180 103 69 72 340 339 73 6 19 19 34 32 2 295 287 175 165 78 87 36 61 142 147 67 111 144 142 133 93 107 107 118 121 141 118 110 136
113 125 149 158 134 122 112 107 113 115 115 133 128 112 115 144 180 203 204 125 107 130 151 140 134 113 111 113 109 109 106 118 113 94 118 159 136 132 134 157 146 180 193 207 180 201 195 161 101 82 141 128 91 300 29 76 48 42 38 349 282 262 325 347 71 94 83 116 278 34 80 107 82 123 133 118 100 105 101 116 150 93 132 149 118
115 132 137 129 121 106 102 101 119 128 136 130 139 137 149 189 203 150 125 99 117 120 66 54 63 70 115 120 118 121 98 84 96 126 152 97 66 101 132 142 171 218 216 280 116 159 178 180 114 73 31 117 168 166 17 103 70 357 33 346 31 326 28 20 47 81 97 110 188 160 201 180 141 125 92 98 138 128 102 125 152 87 20 32 93
129 137 130 129 131 103 105 106 115 127 143 152 139 130 165 208 161 146 124 124 146 105 84 84 86 85 70 79 116 124 127 134 154 156 138 133 151 147 153 182 190 191 202 171 156 192 203 205 137 117 88 2 41 23 144 255 52 44 26 16 31 255 50 50 23 80 98 113 284 118 228 268 101 113 138 117 62 115 126 73 15 62 70 57 306
118 117 116 129 136 134 135 132 130 130 83 61 82 118 216 302 274 108 151 140 74 91 107 104 100 93 88 85 65 91 125 136 153 152 127 116 138 152 144 162 178 178 179 178 175 136 98 215 97 117 96 52 345 304 351 18 104 58 54 34 6 342 339 73 67 52 79 124 167 85 95 37 70 82 88 94 87 51 56 26 217 90 97 62 32
120 124 138 138 140 142 146 145 143 139 128 147 142 145 211 267 123 76 54 69 86 82 87 88 110 114 98 100 127 172 167 151 126 88 85 107 111 113 109 94 79 52 60 68 188 155 164 163 142 134 136 120 189 68 28 339 36 101 82 162 224 248 137 355 78 39 22 87 119 106 75 53 34 61 53 67 69 81 86 292 37 65 65 101 155
131 131 147 141 146 147 150 150 153 147 159 163 168 137 259 133 79 78 74 81 92 103 121 126 90 93 110 102 108 76 68 72 88 108 91 73 56 41 101 97 61 39 118 103 51 347 24 44 77 85 145 154 120 179 49 97 191 319 102 159 180 194 107 128 98 18 84 85 74 87 102 111 84 77 84 68 78 80 91 61 52 82 93 114 170
128 138 146 161 153 151 153 160 154 157 157 169 137 110 218 115 94 90 101 103 115 156 107 119 147 129 109 158 136 127 106 53 57 67 97 121 133 145 114 110 134 122 60 65 120 129 77 43 50 29 52 55 137 127 69 17 17 233 236 273 162 137 135 155 173 109 45 42 34 75 59 73 97 93 69 71 84 79 80 92 42 54 118 173 115
142 149 160 164 164 155 154 154 143 140 135 126 106 90 148 97 95 101 124 157 169 102 115 90 97 107 100 80 72 66 78 74 70 82 84 68 51 26 21 133 145 114 134 108 73 34 80 62 50 49 54 67 79 105 90 128 255 88 131 245 11 56 26 53 46 110 120 0 12 26 43 8 80 104 112 113 93 90 94 87 80 48 84 71 66
155 163 166 167 155 149 150 141 127 115 102 96 110 252 106 96 115 135 184 200 105 111 98 100 97 97 111 119 115 103 108 128 136 129 109 91 97 93 45 359 11 150 120 72 75 58 45 70 63 71 69 54 60 83 110 119 158 157 87 124 80 87 116 109 113 162 111 131 74 340 81 117 25 25 104 121 119 122 109 92 85 44 55 74 88
170 169 157 154 156 152 144 129 116 113 104 111 147 71 65 110 107 168 187 85 107 110 115 115 110 129 142 137 104 95 77 84 90 93 108 113 96 68 51 33 21 48 90 93 88 97 89 70 65 64 97 76 68 84 93 90 101 164 160 141 145 135 124 135 125 128 102 112 111 113 109 135 144 184 161 139 140 129 118 113 105 109 58 80 84
178 110 135 143 156 152 146 142 133 130 139 137 103 88 77 56 21 320 109 113 126 150 142 124 135 142 100 97 102 105 110 66 57 57 62 76 91 96 67 43 49 68 95 114 120 106 105 109 99 80 80 99 93 96 100 135 158 187 184 164 128 127 124 105 103 95 124 120 139 133 130 113 96 86 124 130 112 119 128 129 128 128 107 75 67
146 142 128 132 150 132 120 126 129 131 133 126 123 114 123 121 104 310 161 153 162 150 133 144 138 119 130 135 128 126 94 88 75 72 71 55 47 70 98 84 42 30 67 87 83 95 98 94 104 84 62 65 66 52 37 26 59 38 32 79 122 104 99 121 126 133 122 107 106 105 141 198 136 142 175 143 129 137 139 138 135 123 91 85 91